Keps
Threads by month
- ----- 2023 -----
- December
- November
- October
- September
- August
- July
- June
- May
- April
- March
- February
- January
- ----- 2022 -----
- December
- November
- October
- September
- August
- July
- June
- May
- April
- March
- February
- January
- ----- 2021 -----
- December
- November
- October
- September
- August
- July
- June
- May
- April
- March
- February
- January
- ----- 2020 -----
- December
- November
- October
- September
- August
- July
- June
- May
- April
- March
- February
- January
- ----- 2019 -----
- December
- November
- October
- September
- August
- July
- June
- May
- April
- March
- February
- January
- ----- 2018 -----
- December
- November
- October
- September
- August
- July
- June
- May
- April
- March
- February
- January
- ----- 2017 -----
- December
- November
- October
- September
- August
- July
- June
- May
- April
- March
- February
- January
- ----- 2016 -----
- December
- November
- October
- September
- August
- July
- June
- May
- April
- March
- February
- January
- ----- 2015 -----
- December
- November
- October
- September
- August
- July
- June
- May
- April
- March
- February
- January
- ----- 2014 -----
- December
- November
- October
- September
- August
- July
- June
- May
- April
- March
- February
- January
- ----- 2013 -----
- December
- November
- October
- September
- August
- July
- June
- May
- April
- March
- February
- January
- ----- 2012 -----
- December
- November
- October
- September
- August
- July
- June
- May
- April
- March
- February
- January
- ----- 2011 -----
- December
- November
- October
- September
- August
- July
- June
- May
- April
- March
- February
- January
- ----- 2010 -----
- December
- November
- October
- September
- August
- July
- June
- May
- April
- March
- February
- January
- ----- 2009 -----
- December
- November
- October
- September
- August
- July
- June
- May
- April
- March
- February
- January
- ----- 2008 -----
- December
- November
- October
- September
- August
- July
- June
- May
- April
- March
- February
- January
- ----- 2007 -----
- December
- November
- October
- September
- August
- July
- June
- May
- April
- March
- February
- January
- ----- 2006 -----
- December
- November
- October
- September
January 2017
- 1 participants
- 6 discussions
There have been some significant changes to the identification of the
satellites launched from the ISS on 1-16-2017. The best guess as to who is
who comes from Nico Janssen PA0DLO (with comment from Mike, DK3WM) as shown
below.
NORAD OBJECT
CAT ID NAME
---------------------
41930 OBJECT 41930 (Not Known at this time)
41931 Tancredo 1
41932 ITF-2
41933 EGG
41934 OBJECT 41934 (Not Known at this time)
41935 AOBA-VELOX3
41936 TuPOD
41937 OBJECT A
41938 OBJECT B
41939 OSNSAT
The OBJECT NAME associated with the NORAD CAT ID's above does not match the
NORAD's SATNAME as shown on the SpaceTrack website. This is due to NORAD
still using the SATNAME they orginally guessed soon after launch. It is
possible to see more changes as the objects separate more.
Per Nico Janssen,PA0DLO 1-26-2017 on AMSAT-BB:
> As witnessed by Mike, DK3WM, the TLE sets of some of the Cubesats from
> this launch have been cross-tagged a couple of days ago. TuPOD is now
> object 41936, 1998-067KY. Probably Tancredo 1 is now 41931, 1998-067KT,
> and OSNSAT is 41939, 1998-067KZ. I informed Kelso and he has now
> updated CelesTrak. Unfortunately Space-Track is still using the IDs that
> they originally guessed.
> TuPOD's batteries are empty so the satellite is not transmitting anymore.
> Also Tancredo 1 does not seem to transmit anymore, at least not when
> in eclipse. As far as I know, Waseda-Sat 3 never transmitted any signals.
1
0
SB KEPS @ AMSAT $ORB17026.N
2Line Orbital Elements 17026.AMSAT
HR AMSAT ORBITAL ELEMENTS FOR AMATEUR SATELLITES IN NASA FORMAT
FROM WA5QGD FORT WORTH,TX January 26, 2017
BID: ORB17026.N
DECODE 2-LINE ELSETS WITH THE FOLLOWING KEY:
1 AAAAAU 00 0 0 BBBBB.BBBBBBBB .CCCCCCCC 00000-0 00000-0 0 DDDZ
2 AAAAA EEE.EEEE FFF.FFFF GGGGGGG HHH.HHHH III.IIII JJ.JJJJJJJJKKKKKZ
KEY: A-CATALOGNUM B-EPOCHTIME C-DECAY D-ELSETNUM E-INCLINATION F-RAAN
G-ECCENTRICITY H-ARGPERIGEE I-MNANOM J-MNMOTION K-ORBITNUM Z-CHECKSUM
TO ALL RADIO AMATEURS BT
AO-07
1 07530U 74089B 17025.86149154 -.00000039 00000-0 30648-4 0 9994
2 07530 101.6102 357.4682 0011747 238.1854 150.5650 12.53625223930795
UO-11
1 14781U 84021B 17026.80145936 .00000097 00000-0 18329-4 0 9991
2 14781 97.7187 77.5684 0007317 309.0952 50.9610 14.82851304769396
LO-19
1 20442U 90005G 17025.89885145 -.00000015 00000-0 10741-4 0 9993
2 20442 098.5646 323.9493 0011225 203.3193 156.7483 14.32846389411184
HUBBLE
1 20580U 90037B 17025.93688968 .00000498 00000-0 19819-4 0 9999
2 20580 028.4687 227.4044 0002908 083.6128 059.1358 15.08653493268698
MET-2/21
1 22782U 93055A 17026.22166668 .00000052 00000-0 33046-4 0 9993
2 22782 82.5510 136.2537 0023724 108.7415 269.9273 13.83798373182062
AO-27
1 22825U 93061C 17026.50305446 -.00000007 00000-0 15048-4 0 9991
2 22825 98.7926 350.4961 0008973 31.5530 328.6188 14.29983898217157
IO-26
1 22826U 93061D 17026.84639392 .00000004 00000-0 19222-4 0 9993
2 22826 98.7870 350.9413 0009335 21.4403 338.7168 14.30311420217375
FO-29
1 24278U 96046B 17025.67185325 -.00000002 00000-0 35640-4 0 9995
2 24278 98.5825 287.7457 0350261 346.7177 12.4919 13.53074374 9602
NOAA-15
1 25338U 98030A 17025.96732143 .00000021 00000-0 27669-4 0 9998
2 25338 098.7844 036.5759 0009598 258.6927 101.3174 14.25774701972472
GO-32
1 25397U 98043D 17026.08187325 -.00000025 00000-0 77480-5 0 9999
2 25397 98.5951 331.5312 0002306 69.3991 290.7435 14.23613514963571
ISS
1 25544U 98067A 17024.54013045 .00004750 00000-0 78902-4 0 9992
2 25544 051.6438 034.4158 0007710 114.1014 029.0572 15.54144102007167
NO-44
1 26931U 01043C 17026.66214390 -.00000018 00000-0 25110-4 0 9999
2 26931 67.0515 96.3471 0006745 281.5010 78.5333 14.30444386800101
SO-50
1 27607U 02058C 17026.60109211 .00000050 00000-0 27859-4 0 9993
2 27607 64.5541 198.2079 0040963 158.8833 201.3972 14.75274923758225
CO-55
1 27844U 03031E 17026.85884096 .00000060 00000-0 46863-4 0 9993
2 27844 98.6914 37.9121 0010384 41.2005 318.9955 14.22010783704239
CO-57
1 27848U 03031J 17026.75011104 .00000048 00000-0 41889-4 0 9997
2 27848 98.7009 38.0020 0010417 49.9654 310.2435 14.21629004704106
RS-22
1 27939U 03042A 17026.88514980 .00000108 00000-0 27936-4 0 9998
2 27939 97.9161 176.3705 0012033 319.1065 158.3830 14.66514335712600
NOAA-18
1 28654U 05018A 17025.94152870 -.00000009 00000-0 20314-4 0 9994
2 28654 099.1920 044.6096 0015195 109.8710 250.4099 14.12322813602085
CO-58
1 28895U 05043F 17025.95012000 .00000166 00000-0 40747-4 0 9995
2 28895 097.8466 194.9381 0015891 230.8843 129.0948 14.63332178599454
CO-65
1 32785U 08021C 17025.46398987 .00000269 00000-0 35113-4 0 9999
2 32785 097.5806 056.1559 0011694 282.5998 077.3911 14.87781144473600
AAUSAT2
1 32788U 08021F 17026.08832252 .00000232 00000-0 27150-4 0 9991
2 32788 97.5770 67.3087 0010759 242.2914 117.7215 14.93652870474466
DO-64
1 32789U 08021G 17025.70522405 .00002036 00000-0 15026-3 0 9998
2 32789 097.5795 086.8487 0012273 221.2535 138.7764 15.04321682475340
CO-66
1 32791U 08021J 17026.55948891 .00000465 00000-0 53591-4 0 9990
2 32791 97.5794 61.1175 0012050 263.1882 96.7966 14.90070682474054
RS-30
1 32953U 08025A 17026.79088929 .00000004 00000-0 -44671-4 0 9996
2 32953 82.5061 327.5889 0017834 233.6187 126.3248 12.43074564393851
PRISM
1 33493U 09002B 17026.85823101 .00000609 00000-0 60826-4 0 9998
2 33493 98.1870 263.1716 0015161 185.1524 174.9573 14.95421763434653
NOAA-19
1 33591U 09005A 17025.92668664 .00000064 00000-0 60128-4 0 9998
2 33591 099.0732 350.8827 0013365 315.5618 044.4480 14.12147543410318
TISAT-1
1 36799U 10035E 17025.87083237 .00000599 00000-0 67845-4 0 9993
2 36799 98.0459 145.8950 0013729 76.7501 283.5247 14.90200214354591
JUGNU
1 37839U 11058B 17025.96338667 .00000316 00000-0 26756-4 0 9998
2 37839 019.9601 232.8410 0018984 055.7583 092.3630 14.12569277273459
SRMSAT
1 37841U 11058D 17026.79522851 .00000310 00000-0 25411-4 0 9994
2 37841 19.9715 266.5729 0011751 328.3293 86.6747 14.10562861273294
AO-71
1 37854U 11061E 17026.86676769 .00002971 00000-0 16704-3 0 9997
2 37854 101.7048 188.5852 0169122 133.1002 228.4502 15.03524532285691
HRBE
1 37855U 11061F 17025.91284175 .00002821 00000-0 15610-3 0 9998
2 37855 101.7176 185.0492 0182450 141.5603 219.8770 15.02465919284956
ALMASAT-1
1 38078U 12006B 17025.96425331 .00030938 36771-5 37575-3 0 9995
2 38078 069.4421 153.1955 0335672 139.9737 222.6698 15.15207192263197
HORYU-2
1 38340U 12025D 17026.81016663 .00000281 00000-0 49618-4 0 9998
2 38340 98.3718 25.7918 0012219 27.0919 333.0925 14.75237464252446
RS-40
1 38735U 12041C 17026.41904795 -.00000005 00000-0 -11049-3 0 9994
2 38735 82.4732 52.5851 0016245 340.9310 19.1159 12.42573608204086
BEESAT-3
1 39134U 13015E 17026.59362553 .00003294 00000-0 16341-3 0 9990
2 39134 64.8714 323.2542 0025346 306.7883 53.1424 15.17185447207997
BEESAT-2
1 39136U 13015G 17026.89848181 .00001582 00000-0 95122-4 0 9994
2 39136 64.8712 331.0666 0025511 301.6425 58.2211 15.14596275207870
ZACUBE-1
1 39417U 13066B 17025.77133211 .00000272 00000-0 41101-4 0 9992
2 39417 097.6503 074.7724 0059799 017.1074 343.2136 14.80604330171703
TRITON-1
1 39427U 13066M 17025.67658958 .00000243 00000-0 46632-4 0 9994
2 39427 097.6474 050.5233 0115937 085.3264 276.1172 14.67365076170140
GOMX-1
1 39430U 13066Q 17026.74042118 .00000212 00000-0 47099-4 0 9996
2 39430 97.6630 36.5908 0153207 129.4315 232.0562 14.58773230169316
LO-74
1 39440U 13066AA 17026.84119617 .00000260 00000-0 43445-4 0 9991
2 39440 97.6463 66.1052 0081751 39.7232 320.9926 14.75352421171256
AO-73
1 39444U 13066AE 17026.09044051 .00000284 00000-0 41936-4 0 9990
2 39444 97.6517 75.9512 0058845 13.3915 346.8844 14.81314871170577
SPROUT
1 39770U 14029E 17026.43008549 .00000764 00000-0 93748-4 0 9993
2 39770 97.8710 127.2641 0010559 75.2978 284.9403 14.85942665145089
